GFSWCAN_850_thetae_000.txt.gz
Theta_e
295 295 294 294 294 294 295 296 297 298 298 297 295 298 301 302 302 302 300 302 305 306 306 305 305 305 306 306 306 306 306 306 306 307 308 308 309 309 310 310 312 313 313 313 315 315 318 315 316 318 315 313 313 315
294 295 294 295 295 295 298 299 299 299 298 296 295 295 298 301 300 302 301 300 303 305 304 304 304 305 306 306 306 306 306 306 306 307 308 308 308 307 307 308 306 309 314 314 314 316 312 311 315 312 311 313 312 311
294 294 294 294 295 296 297 297 297 297 299 301 299 298 297 299 300 300 302 301 303 304 304 303 302 303 305 305 305 305 305 305 306 306 306 307 308 306 307 307 306 307 308 311 310 311 311 312 311 310 311 312 314 310
294 294 294 294 295 295 294 295 298 299 301 300 296 295 299 299 299 299 301 301 301 304 304 303 304 304 304 305 305 305 305 305 305 305 306 305 307 306 306 306 306 306 307 308 308 308 310 310 310 311 312 313 313 312
294 294 294 295 295 294 295 297 298 299 299 299 299 298 297 297 298 299 300 300 301 303 303 303 303 302 303 304 305 305 305 306 306 305 305 305 305 306 305 305 305 305 307 309 311 310 310 309 309 310 314 314 314 314
294 294 294 295 294 295 295 296 298 300 301 301 301 300 300 299 298 300 301 301 302 303 305 304 304 304 304 304 304 305 305 305 305 305 305 305 305 305 307 306 305 305 305 306 306 306 306 307 307 308 310 309 314 314
294 293 294 294 295 295 298 299 301 301 301 301 301 301 299 298 299 301 301 301 302 302 302 302 303 304 304 304 304 305 305 305 305 305 305 302 305 304 305 305 304 303 304 304 305 307 307 307 308 309 309 311 311 313
293 294 294 294 297 299 300 301 301 301 300 300 298 299 299 300 300 301 301 302 303 303 303 302 304 304 304 305 305 305 305 305 304 303 303 304 303 304 304 304 304 304 304 304 304 305 306 306 308 308 309 311 312 312
293 293 294 296 299 299 300 300 300 300 299 300 300 300 301 303 303 304 302 301 302 303 301 300 305 307 303 303 304 304 304 304 303 304 304 303 304 304 304 304 304 304 304 305 305 306 307 308 308 307 309 311 311 311
293 294 295 298 300 300 299 299 299 299 299 300 302 303 303 303 302 301 301 302 301 301 300 301 300 306 303 304 304 302 300 303 305 303 303 304 303 303 303 304 304 304 305 305 306 306 305 306 307 307 307 307 308 310
293 294 297 299 300 298 299 299 299 300 301 301 302 302 301 300 299 301 302 302 302 302 301 302 302 302 303 304 304 301 305 304 304 305 304 305 304 304 304 305 306 306 305 306 304 303 302 303 305 306 307 307 309 310
294 297 298 300 299 299 300 300 299 300 300 300 300 300 300 300 300 301 302 303 302 303 303 302 302 301 302 302 304 301 304 304 305 304 304 304 302 303 304 303 303 303 304 304 303 303 302 303 303 305 305 306 310 311
297 297 299 299 298 299 300 299 300 300 299 300 299 300 299 300 301 302 303 304 305 303 302 302 302 301 302 301 302 303 303 303 304 304 304 302 304 304 304 305 304 304 303 301 301 302 303 303 303 305 305 306 310 309
297 299 300 298 298 299 299 299 300 299 300 300 299 300 301 303 302 303 303 303 302 301 301 301 302 301 301 301 302 303 303 303 303 303 302 303 304 304 304 304 303 303 303 300 299 301 302 303 303 303 305 305 308 309
299 300 299 299 299 299 299 299 300 300 299 299 299 301 302 302 302 302 302 302 301 301 301 301 301 301 302 301 301 303 303 303 303 303 304 304 303 303 302 302 302 302 301 298 297 298 300 301 302 301 302 302 303 303
300 299 300 299 298 298 299 299 299 300 299 299 298 299 300 302 302 302 302 301 301 301 299 300 300 301 302 302 303 303 303 303 304 304 304 303 302 302 301 301 301 300 297 296 297 297 299 300 299 298 298 299 299 300
298 299 301 299 297 297 298 298 299 299 298 298 298 298 299 299 300 300 300 299 299 298 299 300 301 301 302 304 303 303 303 303 303 303 303 302 301 300 300 301 300 297 295 296 295 297 297 297 297 297 297 298 297 297
298 300 300 297 296 297 298 298 298 298 298 298 299 299 300 299 299 298 298 298 298 298 299 300 300 300 301 301 302 303 303 302 301 301 301 301 300 300 300 299 298 296 295 295 296 295 296 296 297 297 297 297 297 297
299 299 298 297 296 297 299 299 297 298 298 298 298 298 298 298 298 298 298 298 298 297 298 298 299 299 300 301 302 301 301 301 300 299 300 299 300 300 299 297 296 295 295 295 296 296 296 296 296 296 296 296 296 296
297 297 297 297 296 297 298 298 297 297 297 298 298 298 298 298 298 298 298 297 297 298 298 299 299 300 299 299 298 298 297 297 297 297 297 299 298 297 295 295 295 295 295 296 296 295 295 295 296 296 296 296 296 295
297 298 297 297 296 297 297 297 297 296 297 297 298 297 297 297 298 297 297 298 299 298 298 298 297 297 296 296 296 296 296 296 297 297 297 297 296 294 294 294 295 295 295 296 296 296 295 295 296 295 296 296 296 295
300 298 297 296 295 296 296 296 297 296 295 296 296 297 297 297 297 297 298 297 297 298 297 296 295 295 294 294 294 295 295 295 295 296 296 294 293 294 294 295 296 296 296 295 295 296 296 296 296 296 296 296 295 295
297 296 295 295 295 295 296 296 296 295 296 297 297 298 298 298 297 297 297 298 298 295 294 293 293 293 293 294 294 294 294 295 295 294 293 293 294 295 295 295 295 296 296 296 296 295 296 296 296 296 295 295 294 293
296 296 295 296 296 297 296 296 295 295 296 297 297 299 299 298 297 297 297 298 295 293 292 292 292 293 294 293 294 294 294 295 294 294 294 294 295 295 295 295 295 296 296 296 295 296 295 295 295 295 294 294 293 293
295 294 294 296 296 297 297 296 296 297 298 298 299 299 299 297 298 298 298 294 292 292 291 291 291 293 293 293 294 295 295 295 295 295 295 296 296 296 296 296 296 295 295 296 296 296 296 296 295 294 294 294 293 292
295 295 295 297 298 297 299 298 297 298 298 298 299 297 297 298 298 298 294 292 291 290 291 291 291 292 293 294 294 295 295 295 296 296 296 296 296 296 296 296 295 295 296 296 296 296 296 295 294 294 294 293 292 291
296 297 296 296 296 296 297 296 297 297 297 299 297 296 296 295 296 293 291 290 289 290 291 292 293 293 294 294 295 295 295 295 296 295 295 295 295 296 296 296 296 295 296 296 296 295 295 294 294 293 293 292 291 290
296 296 297 297 296 296 296 297 297 297 297 295 296 295 294 293 292 289 289 288 289 291 292 293 293 294 294 295 295 295 295 295 295 295 295 296 296 296 296 296 296 296 295 295 294 294 294 294 293 292 292 291 290 290
296 295 295 293 295 295 295 295 295 294 293 293 295 294 291 289 288 287 287 288 289 291 293 294 294 294 294 295 295 295 295 295 295 295 295 294 295 294 295 295 295 295 294 294 294 293 293 293 292 292 291 291 290 290
295 295 295 296 295 295 294 293 293 292 291 292 290 289 289 288 287 287 288 288 290 290 290 291 293 294 294 294 293 294 294 294 294 294 293 293 292 293 294 294 293 293 293 292 292 292 292 291 291 290 290 289 289 289
296 296 296 296 295 294 293 292 291 291 292 292 292 291 290 290 288 289 289 289 289 290 291 291 292 292 292 292 292 292 291 291 291 292 292 292 292 292 292 292 292 292 292 292 291 291 291 290 290 289 289 288 288 288
296 296 296 296 295 294 293 293 294 294 293 293 293 292 291 291 291 288 288 289 289 289 289 289 289 289 290 290 290 290 290 290 290 291 291 291 291 292 292 292 291 291 291 291 290 289 289 288 288 288 287 287 286 286
295 295 295 295 295 295 294 294 295 295 294 295 294 293 292 291 291 288 287 287 287 288 288 288 288 288 288 288 288 288 289 289 289 288 288 289 289 289 289 289 289 289 289 289 288 287 287 286 286 286 286 286 286 285

GFSWCAN_850_thetae_003.txt.gz
Theta_e
295 295 295 295 295 295 296 297 297 299 299 297 298 299 298 296 296 301 301 301 303 303 302 302 303 304 304 305 305 304 305 304 303 304 304 303 303 306 308 307 306 307 307 308 308 311 311 313 315 317 314 309 309 308
296 295 295 294 294 295 297 297 297 297 297 299 301 301 302 296 297 299 300 299 300 302 303 303 302 302 304 305 305 305 305 305 305 304 303 303 302 302 304 306 305 305 306 305 307 307 307 306 307 312 311 309 309 309
296 296 295 295 295 297 298 297 296 298 299 299 300 299 299 298 296 299 299 299 299 301 301 302 302 301 303 303 304 305 304 305 305 305 305 305 305 303 304 304 303 304 304 306 306 306 306 307 306 307 308 308 309 311
295 296 295 295 295 297 296 296 297 298 297 298 299 300 301 301 301 299 299 298 298 300 301 300 301 301 301 302 303 304 304 305 305 305 305 305 305 304 306 304 304 304 304 304 303 304 304 306 308 309 308 309 309 310
295 296 295 295 294 295 296 296 296 298 299 301 302 301 301 301 301 301 301 299 299 300 300 300 300 301 301 302 302 303 304 305 305 305 305 305 304 305 304 301 303 303 303 303 303 303 303 305 305 305 306 306 308 309
296 298 296 294 294 294 294 296 299 300 301 301 301 301 300 300 300 301 300 300 302 302 302 301 300 300 300 300 301 301 303 303 304 305 305 304 304 304 305 305 304 303 303 303 303 304 305 305 305 305 305 307 308 308
294 294 294 294 294 294 295 299 301 301 301 300 300 299 300 300 301 301 300 300 301 301 300 300 298 302 304 303 303 303 303 304 304 305 305 304 304 304 304 305 303 304 304 303 303 303 303 303 303 304 304 305 306 307
293 293 294 294 295 295 298 301 301 300 299 299 299 299 299 300 301 301 301 302 302 302 303 301 302 302 303 304 304 304 304 305 304 304 303 304 303 303 302 302 302 303 303 303 303 304 304 304 304 304 305 306 308 308
293 293 294 295 294 296 300 301 299 299 299 299 299 300 301 302 302 303 303 302 300 301 302 300 301 301 302 302 302 304 304 304 303 304 303 303 303 304 302 302 302 302 302 303 303 304 305 305 305 305 305 306 306 307
293 293 294 294 295 299 301 300 299 300 299 300 301 302 302 303 302 300 300 302 301 300 300 299 300 300 300 300 301 302 301 303 304 300 302 303 303 303 303 303 302 302 304 304 305 305 304 303 302 302 303 303 304 305
293 294 295 295 298 300 301 299 300 299 299 300 301 301 301 301 300 301 301 300 300 299 299 300 301 301 301 302 303 300 302 299 301 299 300 301 301 302 303 303 304 304 304 303 303 302 301 301 302 303 302 303 303 305
294 295 295 298 300 300 300 300 300 299 300 299 299 299 298 300 299 300 300 301 297 301 301 301 301 300 300 301 302 302 303 303 303 300 303 301 300 303 303 303 303 302 302 302 302 302 301 300 300 302 302 303 303 304
295 294 298 298 299 299 298 299 299 300 300 299 299 298 298 299 297 301 297 298 296 301 302 301 299 300 301 301 300 301 303 302 300 298 302 300 301 304 303 303 302 302 302 302 302 301 299 297 298 301 302 303 302 303
293 296 297 299 300 299 299 299 299 300 299 299 299 295 299 300 300 297 299 298 301 301 301 300 300 301 300 301 300 302 301 299 296 297 299 300 303 303 303 301 301 301 302 301 300 298 296 296 297 299 299 299 301 302
297 297 299 300 299 299 298 299 300 299 299 299 298 297 297 300 301 301 301 301 301 301 300 299 299 299 298 300 300 300 300 298 299 299 301 303 302 302 302 301 301 301 301 300 299 296 295 297 297 297 299 300 302 301
297 299 300 299 299 297 297 298 299 299 298 299 298 299 299 298 298 299 299 300 300 299 298 299 299 300 299 299 299 300 301 301 302 303 303 303 302 301 302 301 301 300 299 299 297 295 296 297 298 297 298 299 299 301
300 301 299 299 299 297 297 298 299 299 297 298 297 297 298 298 298 298 299 298 298 298 299 297 298 297 297 300 297 297 297 299 301 301 301 300 299 300 299 300 301 299 298 296 295 296 295 296 297 296 297 297 298 299
301 300 299 300 298 296 299 298 298 299 299 298 298 298 298 299 299 298 298 298 298 298 298 298 299 300 297 294 296 298 299 299 299 298 298 297 297 298 298 300 298 297 296 295 295 295 296 296 296 296 296 296 296 297
300 299 299 300 297 296 298 298 298 298 298 297 298 298 297 297 298 298 298 298 298 298 297 297 298 298 298 298 299 297 297 297 296 296 296 296 297 298 299 297 296 295 295 295 296 295 295 296 296 296 296 296 296 297
299 299 300 298 297 297 298 298 297 297 296 297 297 297 297 298 298 298 298 298 297 297 298 299 297 298 297 297 296 295 295 295 295 296 296 296 297 296 297 295 294 295 295 295 295 295 295 295 296 296 296 296 296 296
297 297 298 297 297 297 297 297 296 296 296 296 297 297 297 297 297 297 297 297 297 298 297 298 296 295 294 293 293 294 294 294 295 295 296 296 297 295 293 294 294 295 295 295 295 295 296 295 296 296 296 295 295 295
297 298 298 297 296 296 296 296 296 297 296 295 295 296 296 296 296 297 297 297 297 297 295 294 293 292 293 292 293 294 294 294 294 294 294 294 293 293 293 294 295 295 295 295 296 296 296 296 296 296 296 295 295 294
299 298 296 296 295 295 295 296 295 295 296 296 296 296 295 296 297 297 296 297 297 293 292 292 292 292 292 293 294 295 294 294 294 294 294 294 295 295 295 295 295 295 295 295 296 296 296 296 296 295 295 294 294 293
297 296 295 295 295 294 295 295 294 295 295 296 296 291 294 297 297 296 295 296 293 292 292 292 291 292 292 294 294 293 295 294 294 294 294 295 295 295 295 295 295 296 296 296 296 296 296 295 295 294 293 293 293 292
295 295 295 292 296 296 296 296 295 296 296 293 294 293 296 297 293 295 296 292 291 290 290 290 291 291 292 293 293 294 295 295 295 295 295 295 296 295 295 295 295 295 296 296 296 295 295 294 293 293 293 293 292 291
289 294 292 294 295 295 295 296 295 295 296 296 295 297 297 295 293 295 292 291 289 289 289 290 291 291 293 294 294 294 294 295 295 295 295 295 295 295 295 295 295 295 295 296 295 295 294 294 293 293 292 292 291 291
289 294 295 296 296 296 294 296 296 295 296 294 296 295 295 293 292 291 289 289 288 289 289 290 291 291 292 293 294 294 294 293 293 293 293 294 295 295 295 295 295 295 295 295 295 294 294 293 293 292 292 291 290 290
295 296 297 295 295 295 293 295 296 296 295 294 294 295 294 291 289 289 288 287 288 289 290 291 291 292 292 293 294 294 294 294 294 293 294 294 294 294 294 294 294 295 294 294 293 293 293 292 292 291 291 290 290 290
295 295 295 290 294 295 295 294 293 294 293 293 294 293 290 290 288 288 287 288 289 289 290 292 292 292 292 293 293 294 294 294 294 294 293 292 293 293 293 294 294 294 294 293 293 292 291 291 291 290 290 290 289 289
296 295 294 294 290 291 294 293 293 293 292 291 291 290 289 288 288 288 288 288 289 289 289 290 291 292 292 292 291 292 292 292 291 292 291 290 290 291 292 293 293 292 292 292 292 291 291 291 290 290 289 289 289 288
295 295 295 295 291 294 293 291 291 291 291 291 290 290 289 289 289 289 289 289 289 289 289 289 289 290 290 290 290 290 290 290 290 290 290 290 291 291 291 292 292 292 291 291 291 291 290 290 289 289 288 288 287 287
295 295 295 293 294 293 292 292 293 293 292 291 291 291 290 290 290 289 288 289 289 290 289 289 289 288 288 288 288 289 289 289 289 288 289 289 289 289 288 288 289 289 289 289 289 288 288 287 287 287 287 287 286 286
295 295 295 294 294 293 293 294 294 294 293 293 293 292 292 292 291 289 288 288 288 288 288 288 289 288 287 287 287 287 287 287 287 287 286 287 286 287 288 288 288 288 287 287 287 287 287 286 286 286 285 285 285 285

GFSWCAN_850_thetae_006.txt.gz
Theta_e
297 297 296 296 295 295 295 295 295 295 295 295 296 297 302 301 300 296 296 297 300 301 300 301 301 302 302 302 303 303 303 302 303 304 305 301 302 302 304 304 305 305 306 305 306 307 304 310 306 306 306 308 309 310
297 297 296 296 296 295 295 295 296 297 295 296 297 299 301 299 299 298 298 298 299 301 300 299 299 299 300 300 301 302 302 302 303 303 303 303 303 299 302 303 301 303 304 305 305 303 303 305 305 305 305 304 306 308
297 297 297 296 296 295 296 297 298 297 297 297 297 299 300 300 301 301 301 301 299 299 299 299 300 300 299 300 300 302 302 302 303 303 303 304 305 299 304 303 302 301 302 305 305 305 304 305 304 304 304 306 305 307
297 297 296 295 295 295 295 296 296 295 296 298 299 301 301 301 301 301 302 302 301 301 300 300 300 300 300 300 301 301 301 302 302 303 303 304 304 303 302 302 302 303 303 303 303 303 303 303 303 303 303 304 304 305
297 296 296 295 295 295 295 295 296 295 298 299 300 301 301 300 300 300 300 301 301 301 299 300 300 301 300 300 300 301 301 302 302 303 304 304 303 304 302 303 304 303 303 304 304 303 302 302 303 303 303 304 303 303
297 296 296 295 294 295 295 294 295 298 299 300 300 300 299 300 301 301 301 300 301 300 302 300 300 301 301 303 302 302 300 301 302 303 304 304 304 303 304 304 303 303 303 303 302 303 303 303 303 303 302 303 304 304
296 296 297 294 294 294 295 294 295 299 301 300 299 299 299 299 301 301 301 300 302 301 302 300 297 301 301 302 302 303 303 301 302 302 303 303 304 304 303 304 303 303 303 303 303 303 302 302 302 303 303 303 303 305
295 296 300 294 294 294 295 294 297 301 300 299 299 298 298 299 300 301 302 301 301 302 302 301 300 299 302 302 302 303 304 303 303 304 302 303 303 303 303 302 302 303 303 302 302 302 302 303 304 304 304 304 303 303
295 300 299 294 294 294 294 295 299 301 299 299 299 298 299 301 301 301 302 302 301 300 300 300 300 299 301 301 300 302 301 303 303 303 304 302 301 303 302 302 302 302 301 302 303 303 303 303 302 302 302 302 302 302
295 301 299 294 294 294 294 297 300 300 300 299 299 301 301 303 301 301 300 301 300 300 300 298 299 299 300 299 300 301 301 301 303 301 302 303 302 302 302 302 302 302 303 300 301 301 302 302 301 301 301 301 300 301
297 301 295 294 293 294 296 299 300 300 300 299 299 300 301 299 299 300 300 299 299 299 299 299 299 300 300 300 300 301 300 299 301 298 300 299 300 299 303 302 302 302 301 300 301 302 301 301 301 300 299 298 298 300
299 299 293 293 293 296 299 300 300 300 299 300 299 299 298 299 298 297 296 298 296 295 300 300 300 300 300 300 301 301 303 302 301 299 301 300 298 303 303 302 302 301 300 300 300 301 301 300 299 297 296 296 297 300
299 294 293 294 296 299 299 300 299 299 299 300 299 298 298 298 296 299 293 294 293 299 300 301 298 300 299 300 299 300 301 299 297 299 301 299 301 302 301 301 301 301 300 300 300 300 299 299 297 295 296 296 297 297
298 295 296 298 297 299 300 299 299 299 300 299 298 297 298 297 297 295 295 297 300 300 301 300 299 299 299 300 300 301 298 299 298 297 299 301 301 302 302 301 300 300 299 300 299 298 298 297 295 296 295 296 298 298
294 298 298 298 299 300 299 299 298 299 299 298 298 298 296 298 299 300 300 299 300 300 298 298 296 298 297 300 299 300 300 299 297 298 298 301 301 300 299 298 297 298 297 299 298 297 295 295 296 295 296 296 297 298
298 297 297 298 300 299 299 299 299 298 299 298 297 298 298 297 296 298 298 299 299 298 298 297 298 299 298 298 299 297 296 297 301 300 299 299 298 297 297 296 296 297 299 297 297 295 294 295 295 296 296 297 297 298
297 298 298 299 299 298 297 298 298 298 297 297 297 297 298 297 297 297 298 298 298 298 296 297 296 297 295 299 298 294 299 299 298 297 296 296 296 295 295 295 296 298 298 297 294 295 295 295 295 295 295 295 296 297
298 298 300 299 299 298 297 299 298 298 298 298 297 297 297 298 298 298 298 297 297 298 297 297 297 298 296 293 293 295 297 296 295 295 295 294 294 294 295 295 297 297 296 295 295 295 294 295 295 295 295 294 295 296
298 299 300 300 300 297 298 298 298 298 297 297 297 298 298 297 297 297 297 298 298 298 298 297 297 297 296 297 298 296 295 294 294 294 294 294 294 295 295 295 295 295 295 295 294 295 295 295 295 295 296 296 296 296
299 300 300 300 299 297 298 298 298 297 296 296 296 297 297 297 297 297 297 298 298 297 296 298 297 297 297 295 294 293 293 293 293 294 294 294 294 295 294 293 293 294 294 295 294 295 295 295 296 296 296 296 295 295
300 300 299 299 297 297 298 297 297 296 296 296 296 296 296 296 296 296 297 297 297 296 296 296 296 294 293 293 293 293 293 294 294 294 294 294 294 294 295 294 293 295 295 295 295 295 295 295 295 295 295 295 294 294
300 300 298 297 297 296 296 297 296 296 296 295 295 295 295 295 295 296 297 297 296 296 295 293 292 292 292 293 293 294 294 294 294 293 293 294 294 294 294 295 295 295 295 295 295 295 295 295 295 295 295 294 293 293
298 298 298 297 296 296 295 295 295 295 294 295 296 295 294 295 296 296 296 296 296 293 292 292 291 291 291 293 294 294 294 295 295 295 294 294 294 294 294 295 295 295 295 295 296 295 295 295 294 293 293 293 292 292
298 298 296 296 295 293 295 296 295 295 295 296 296 291 292 295 297 296 295 295 292 291 291 291 291 291 293 293 293 294 293 294 294 295 295 294 294 294 295 295 295 295 296 295 295 295 294 293 293 293 293 293 292 292
296 295 295 293 295 295 295 295 295 296 296 293 291 292 294 296 293 294 294 292 291 290 291 291 290 292 292 292 293 294 293 293 293 294 295 295 295 295 295 295 295 295 295 295 295 294 294 293 293 293 293 292 291 291
291 294 292 292 294 295 295 295 295 295 295 295 294 296 296 295 293 293 292 291 290 289 290 289 290 292 292 292 293 293 293 292 293 293 293 294 294 294 294 295 295 294 294 294 294 294 293 293 292 292 291 291 291 290
291 292 294 294 295 295 295 295 295 295 295 294 293 294 294 293 291 291 290 290 289 289 289 289 290 292 291 292 293 293 293 293 292 292 293 293 294 294 294 294 294 294 294 294 293 293 293 292 292 291 291 290 290 290
294 295 295 295 295 295 293 294 295 294 293 295 294 294 293 291 290 290 290 289 289 290 290 291 291 291 291 292 293 294 294 293 293 292 293 293 293 293 293 294 294 294 294 293 293 292 292 291 291 291 290 290 290 290
295 296 295 292 293 294 294 294 293 295 294 293 293 293 290 290 290 289 288 288 289 290 290 291 291 291 291 292 292 293 293 293 293 292 292 292 292 292 292 293 293 293 293 292 292 291 291 291 290 290 290 290 289 289
295 295 294 292 290 291 294 294 293 293 292 292 292 291 290 289 289 289 289 289 289 290 290 291 291 291 291 291 291 291 291 291 291 290 290 289 289 290 291 291 292 292 292 291 291 291 290 290 289 289 289 288 288 288
295 294 294 293 290 293 294 293 292 291 291 291 290 290 289 289 288 289 289 289 289 290 290 290 290 291 291 290 290 290 290 289 289 289 289 289 289 290 289 289 290 290 290 290 289 289 289 288 288 287 287 287 287 287
295 294 295 292 293 292 291 292 291 291 291 291 291 290 290 290 290 289 289 289 290 289 290 290 290 289 289 289 288 288 288 288 288 288 288 287 287 287 287 287 287 287 287 287 287 287 287 287 287 286 286 286 286 286
295 294 294 293 292 292 292 293 293 293 292 291 292 291 291 291 291 289 288 288 288 288 288 288 288 288 288 287 287 287 287 286 286 286 286 286 286 286 287 287 287 287 287 287 287 287 287 286 286 286 286 286 286 286

GFSWCAN_850_thetae_009.txt.gz
Theta_e
298 297 298 298 298 297 296 296 295 295 295 295 295 296 296 299 299 300 300 299 298 299 299 299 300 300 300 301 301 300 300 300 300 298 300 299 304 302 302 301 303 301 299 301 299 300 302 305 304 305 305 305 305 305
298 297 297 298 298 298 296 296 296 295 295 295 295 296 298 298 300 301 302 301 301 301 301 301 300 299 299 299 300 300 301 301 301 302 301 300 300 302 302 302 300 302 302 302 301 303 302 303 303 304 304 304 303 303
298 297 297 298 299 299 296 295 295 295 295 295 296 298 300 301 301 301 302 302 303 301 300 300 300 300 299 299 299 300 300 301 301 301 301 303 303 297 302 302 300 300 301 303 303 303 303 303 303 303 303 302 302 303
298 297 296 297 298 298 296 295 295 295 295 295 297 299 300 301 301 300 301 302 302 302 301 301 300 300 300 300 300 300 300 300 300 301 302 302 302 301 302 300 301 302 302 303 303 302 302 302 303 303 302 302 302 302
297 296 296 297 298 298 295 295 295 295 295 296 299 299 300 300 300 301 301 300 301 301 300 300 300 300 300 300 301 301 300 300 301 302 302 301 302 302 302 303 303 303 303 303 303 302 302 302 302 302 302 302 302 302
297 296 296 296 297 299 295 294 294 295 295 297 299 300 299 300 300 301 300 300 300 301 300 301 300 301 301 303 302 301 301 300 300 301 302 302 302 302 303 302 302 303 303 303 303 303 302 302 302 301 301 302 302 302
297 297 296 296 296 298 295 294 294 294 296 297 299 299 299 299 300 302 300 300 300 301 300 300 298 301 300 301 302 301 302 302 300 301 302 302 302 302 303 304 303 303 302 302 302 302 301 302 302 303 303 302 301 302
298 297 296 296 296 297 295 294 294 294 297 298 299 299 299 298 299 301 301 301 302 301 301 300 299 299 300 302 301 300 301 302 302 303 303 303 303 301 303 301 302 302 301 301 302 301 300 301 301 302 301 301 301 301
300 298 297 295 296 298 296 294 294 296 300 299 299 299 299 301 301 301 301 302 302 301 300 299 298 294 300 300 299 299 301 302 302 303 303 303 303 303 302 301 301 301 301 302 301 301 300 300 301 301 300 300 300 299
301 298 297 296 296 299 295 294 295 299 301 299 298 300 301 301 301 300 299 300 300 300 299 299 299 300 299 299 299 299 300 301 301 300 301 303 300 302 302 302 302 302 301 301 300 300 299 299 300 300 300 299 299 298
301 300 300 295 296 297 294 295 297 301 300 299 299 300 300 300 298 299 300 300 299 299 299 298 298 298 299 297 297 300 300 298 301 297 299 299 297 298 302 302 301 300 300 300 300 300 298 299 300 299 299 298 298 296
302 300 300 295 297 295 294 297 300 300 300 299 299 299 299 298 298 298 297 297 297 297 298 299 300 299 299 299 300 300 302 300 301 298 301 300 297 301 301 301 301 301 300 298 298 298 298 299 298 298 297 297 296 295
303 301 300 298 297 295 296 300 300 300 299 299 299 298 297 297 297 298 294 293 294 299 299 300 298 300 299 299 299 299 300 300 297 300 300 297 300 300 300 300 300 298 297 296 297 297 298 298 297 296 295 295 295 296
304 301 299 299 299 298 298 299 300 300 299 299 298 297 297 297 297 294 294 296 299 299 300 299 297 298 298 297 298 300 297 298 298 300 297 297 300 298 297 297 296 296 295 295 296 298 298 296 294 295 295 295 295 295
302 300 299 299 297 298 298 300 300 299 299 298 297 297 295 296 297 298 299 299 299 300 299 298 296 296 295 299 298 297 299 297 298 296 294 298 297 296 296 295 294 294 294 295 295 297 296 295 294 295 295 295 294 294
302 299 299 299 298 298 300 300 300 299 299 298 297 298 297 296 296 297 298 298 299 299 298 297 293 296 295 295 298 296 295 296 294 298 297 296 295 295 294 294 294 294 294 295 297 296 294 294 294 294 294 294 294 295
300 299 299 298 297 299 300 299 300 298 298 297 297 297 297 297 297 297 298 298 299 298 295 295 295 293 294 296 297 292 298 298 296 295 295 294 294 293 293 293 294 294 295 295 295 294 294 294 295 294 293 293 294 294
299 299 299 297 298 300 300 299 298 298 298 297 297 297 297 297 297 298 298 298 298 298 297 297 296 296 293 293 292 294 296 295 294 294 293 293 293 293 294 294 294 294 293 294 293 293 294 294 294 294 294 294 295 295
299 299 297 298 299 299 298 298 298 298 297 297 297 297 297 297 297 297 297 297 297 297 297 296 296 296 295 295 297 295 294 293 292 292 293 294 294 294 294 294 294 292 293 294 294 294 295 294 295 295 295 295 294 294
299 297 298 300 299 297 298 298 298 297 295 297 297 297 297 297 297 297 297 297 297 297 297 297 295 295 296 296 294 293 292 292 292 293 294 293 293 294 293 294 293 293 294 294 295 295 295 295 295 294 294 294 294 293
297 298 300 299 298 297 297 297 297 297 296 296 296 296 296 296 296 297 297 296 297 296 296 295 296 296 295 294 293 292 293 293 294 294 294 294 293 294 294 294 294 294 294 295 295 294 294 294 294 294 293 293 293 293
297 299 299 297 297 297 297 297 296 296 296 295 295 295 295 294 295 295 295 296 296 296 296 296 295 295 294 292 292 292 293 293 293 294 294 295 293 293 294 294 294 295 295 295 294 294 294 293 293 293 293 292 292 292
298 299 298 297 296 296 295 296 296 296 291 294 295 294 294 294 295 295 296 296 296 295 295 294 293 293 291 292 292 293 293 293 293 294 293 295 293 293 294 294 295 295 295 295 294 294 293 293 293 292 292 292 292 291
298 298 297 296 295 294 295 295 295 295 295 295 295 293 292 293 295 295 295 295 294 293 293 292 291 291 292 292 292 292 292 292 292 293 293 294 295 294 294 294 295 295 294 294 294 294 293 293 293 292 291 291 291 291
297 295 296 292 295 293 292 295 294 295 295 295 293 293 293 295 295 296 294 293 293 292 291 291 290 291 291 291 291 292 292 291 292 292 292 293 293 293 294 294 294 294 294 294 294 293 293 292 292 291 291 291 291 290
293 294 291 292 293 294 293 294 294 295 295 295 294 295 296 295 293 294 292 293 292 292 291 290 289 291 291 291 291 292 293 292 292 291 292 292 293 292 293 293 293 293 294 293 293 293 292 292 291 291 291 290 290 290
289 291 293 294 295 295 295 294 294 295 295 295 294 295 294 292 292 292 292 292 292 291 290 289 289 291 291 292 292 293 292 293 292 292 292 292 292 292 292 292 292 292 293 293 293 292 292 291 291 290 290 290 290 290
294 294 294 295 295 295 294 295 295 295 294 294 295 295 293 292 290 291 291 292 291 290 290 290 290 290 291 292 293 293 293 293 293 292 292 292 292 292 292 292 292 292 293 293 292 291 291 291 290 290 290 290 289 289
295 295 295 294 294 294 294 295 294 295 295 294 293 293 291 291 291 291 291 291 290 290 291 291 291 290 290 292 292 292 293 293 293 292 292 292 292 292 292 291 291 292 292 292 291 291 291 290 290 290 289 289 288 288
294 295 293 293 292 293 293 294 294 294 293 293 293 292 291 290 290 290 290 290 289 290 290 291 291 291 291 291 292 291 291 291 291 291 291 290 290 290 291 291 291 291 291 290 290 290 290 289 289 288 288 287 287 287
294 294 293 293 290 292 293 293 293 292 292 292 291 291 290 290 289 289 289 289 289 289 289 290 290 290 291 291 291 291 290 290 290 290 290 289 289 290 289 289 288 288 287 287 287 287 287 287 287 287 287 287 286 286
294 294 294 292 291 291 292 291 291 291 291 291 290 290 289 289 289 289 290 289 289 289 289 289 290 290 290 290 290 289 289 289 288 288 287 287 287 287 287 287 287 287 287 287 287 287 287 287 287 286 286 286 286 286
294 294 293 292 291 291 291 292 292 293 292 291 291 290 290 290 290 290 289 289 289 289 289 289 289 289 288 288 288 288 287 287 287 287 286 286 286 285 286 287 287 287 287 287 286 286 286 286 286 286 286 286 286 286

GFSWCAN_850_thetae_015.txt.gz
Theta_e
300 300 300 299 298 298 298 299 300 297 296 296 295 295 296 298 300 301 301 301 301 300 300 300 300 299 299 299 299 299 298 298 298 300 300 299 298 300 300 300 301 301 300 300 300 300 300 300 301 302 302 302 302 302
301 300 299 299 299 298 297 298 299 298 296 295 296 296 297 299 302 302 302 301 301 301 300 300 300 300 300 300 299 299 299 299 299 299 299 299 299 298 300 301 298 301 301 301 301 301 300 300 301 301 301 302 302 302
302 301 300 299 299 298 298 297 298 299 296 295 296 295 296 299 302 302 302 301 300 300 300 299 299 299 299 300 300 299 299 299 299 299 299 300 300 298 301 299 299 298 299 301 300 301 301 301 301 301 302 301 301 300
317 305 301 300 299 298 298 297 297 298 297 296 295 295 297 299 302 302 301 301 300 300 299 299 299 299 299 300 299 299 299 299 299 299 300 301 301 300 300 299 300 300 300 301 301 301 301 301 301 301 301 300 299 299
317 316 313 301 300 300 298 297 297 297 297 296 295 295 297 300 302 302 301 300 300 301 298 299 298 299 299 299 300 300 299 299 298 299 299 299 299 300 300 300 301 300 301 302 302 302 302 302 301 301 300 299 299 298
317 318 316 312 302 302 301 298 296 297 297 296 295 295 298 302 302 301 300 300 300 301 299 297 299 299 300 300 301 301 301 299 298 298 299 300 300 300 302 301 299 300 301 302 302 301 301 300 300 300 299 298 298 298
314 315 316 315 311 303 302 299 297 297 299 296 296 295 300 302 302 301 299 299 300 299 299 299 298 300 300 300 300 300 300 300 299 299 299 299 300 300 301 302 301 301 301 300 299 299 299 298 299 298 298 297 297 297
308 312 314 314 314 308 303 302 300 300 302 297 295 298 301 302 301 301 300 299 299 299 300 299 299 298 298 300 300 300 299 300 299 299 300 300 301 300 302 300 300 300 299 299 299 299 299 299 298 298 297 296 296 296
306 306 312 313 312 310 304 303 302 302 301 298 296 301 302 301 299 300 300 300 300 301 299 298 297 294 298 299 299 298 298 298 298 299 301 301 301 301 300 300 300 299 299 299 298 298 298 298 297 296 295 295 295 296
307 304 309 312 311 309 307 303 302 302 300 299 300 301 299 300 300 299 300 299 300 300 300 299 299 296 298 298 297 296 297 298 299 295 299 301 300 300 301 300 301 299 297 296 296 296 295 295 294 294 294 294 294 295
305 307 308 310 311 309 306 303 302 301 300 300 301 299 300 300 299 299 299 298 299 300 299 299 298 298 298 296 295 297 297 298 299 296 296 298 296 297 300 298 297 296 295 295 294 294 293 293 293 293 293 293 294 296
304 309 307 305 309 309 306 303 302 300 300 300 299 299 300 300 298 298 297 298 299 298 297 297 297 298 298 298 298 297 297 297 297 295 298 299 296 299 297 296 295 294 293 293 292 292 292 293 293 293 293 294 295 293
302 305 307 306 308 309 306 303 302 300 300 299 298 299 298 297 298 298 297 298 298 298 296 296 297 297 296 297 298 297 297 296 296 295 298 297 299 297 295 294 293 293 292 293 293 293 293 293 293 294 294 293 293 293
300 304 308 305 305 308 306 302 301 300 300 299 299 298 297 297 296 296 298 297 298 298 297 298 297 297 297 297 297 298 297 295 296 298 296 294 297 295 293 293 292 292 293 293 293 293 293 293 292 293 293 293 293 292
301 302 306 305 304 307 306 302 300 299 300 299 298 297 296 296 297 297 297 297 297 298 298 297 295 296 295 295 296 295 296 297 295 295 292 296 294 293 292 293 293 293 294 294 292 293 293 293 293 293 293 293 292 292
301 301 304 305 305 305 304 301 300 300 299 298 297 297 296 295 294 295 296 297 298 299 298 297 293 294 296 296 295 295 294 296 294 294 296 294 292 292 293 293 293 293 293 294 293 293 293 293 293 293 293 293 293 293
301 301 303 307 306 305 302 300 300 299 299 298 297 297 297 296 296 295 297 298 299 298 294 295 291 293 293 292 293 293 295 293 295 295 294 293 292 293 293 293 293 293 293 294 294 293 293 293 293 293 293 293 293 293
300 301 302 305 304 304 300 299 299 299 297 298 296 296 296 297 297 297 297 298 298 297 296 294 294 293 295 295 293 294 294 295 295 294 293 293 293 294 293 293 293 293 294 294 294 293 293 293 293 292 292 292 293 293
301 301 304 305 303 300 299 298 298 297 298 297 297 297 297 297 297 297 297 297 298 298 297 295 294 296 295 294 294 295 296 295 294 295 293 293 294 293 293 293 293 293 293 294 293 293 293 292 292 292 292 292 292 292
301 300 304 305 302 299 298 297 298 297 296 297 297 297 297 297 297 297 297 297 298 297 297 296 295 295 295 296 296 296 296 295 294 293 293 293 293 293 293 293 293 293 294 293 293 293 292 292 292 292 291 291 291 291
301 301 302 301 299 299 298 297 298 298 296 296 296 297 296 296 296 296 296 296 296 296 297 297 296 296 296 296 296 296 295 294 293 293 293 293 293 292 293 293 293 294 294 294 293 292 292 292 291 291 291 291 290 290
301 302 300 297 297 296 297 296 296 296 296 295 295 296 294 294 294 295 296 295 296 297 297 297 296 296 296 296 296 295 295 293 293 292 292 292 292 292 292 293 293 293 293 293 293 292 292 292 292 291 291 291 290 290
300 299 297 298 296 296 295 296 295 295 294 294 294 294 293 293 294 295 295 295 296 296 296 296 296 296 296 296 295 294 293 293 292 292 292 291 291 291 293 293 292 293 293 293 293 292 292 292 291 291 291 291 290 290
298 298 297 296 296 294 295 295 295 294 294 294 294 293 293 293 293 293 294 294 295 296 296 296 296 296 295 294 294 293 293 292 292 292 291 291 291 292 293 293 292 291 292 292 292 292 292 292 292 291 291 290 290 290
297 295 296 295 294 294 295 295 295 294 295 295 294 294 292 293 294 295 295 295 295 296 296 295 295 295 295 294 293 292 292 292 291 291 291 290 291 292 292 292 292 292 292 292 292 292 292 292 291 290 290 290 290 289
295 294 294 292 293 293 294 293 293 294 294 295 295 293 293 294 294 294 293 295 295 295 295 295 295 294 293 293 292 292 291 291 291 291 291 290 291 291 291 292 292 292 292 292 292 292 292 292 292 292 291 290 290 289
294 292 293 294 294 294 293 294 294 295 295 295 294 294 294 292 294 293 294 294 295 295 295 295 294 294 293 292 291 291 291 291 291 292 291 290 290 291 291 291 291 291 291 291 291 291 291 291 291 291 290 290 289 288
293 293 294 293 294 295 294 295 295 295 295 294 294 295 295 294 293 293 293 294 294 294 294 293 292 291 290 291 290 291 290 291 291 291 290 290 290 290 291 291 291 291 291 291 291 291 291 290 289 289 288 288 288 287
294 294 295 292 294 294 294 295 294 295 295 295 295 294 293 294 293 293 293 293 293 292 291 291 290 289 290 289 290 291 290 291 291 290 290 290 290 290 290 290 290 290 290 290 290 289 287 287 287 287 287 287 287 287
294 294 294 294 292 293 293 294 294 294 294 295 294 292 292 292 292 292 293 293 292 292 291 290 290 290 289 289 290 291 292 292 291 291 291 291 290 290 290 289 289 288 287 287 287 287 287 287 287 287 287 287 287 287
294 294 293 292 291 291 292 293 293 293 293 293 293 292 292 292 292 291 291 291 290 290 291 291 290 288 289 290 290 291 291 290 290 290 290 290 289 289 288 287 287 287 287 287 286 286 286 287 287 286 286 286 286 286
294 293 293 292 292 290 291 292 291 291 291 291 290 291 290 290 290 290 291 291 290 290 290 290 290 290 289 290 290 290 290 290 290 289 288 288 287 287 286 286 286 287 287 286 286 286 286 286 286 286 286 286 286 286
292 292 291 291 291 291 291 291 291 291 291 290 290 290 289 289 289 290 291 290 290 290 290 290 290 290 290 289 289 289 289 289 288 288 287 286 286 286 285 285 286 286 286 286 286 286 286 286 286 285 285 285 285 286